Natchez, MS

8:24 PM CDT on June 28, 2017 (GMT -0500)
Hardy-Anders-Adams County

Weather History for KHEZ - August, 2013

Change the Weather History Date:

Tuesday, August 13, 2013

  Actual Average Record
Temperature  
Mean Temperature 81 °F -  
Max Temperature 91 °F 90 °F 100 °F (1948)
Min Temperature 71 °F 71 °F 55 °F (2004)
Cooling Degree Days 16    
Growing Degree Days 31 (Base 50)    
Moisture  
Dew Point 74 °F    
Average Humidity 89    
Maximum Humidity 100    
Minimum Humidity 62    
Precipitation  
Precipitation 1.90 in - - ()
Sea Level Pressure  
Sea Level Pressure 30.00 in    
Wind  
Wind Speed 6 mph (SSW)    
Max Wind Speed 20 mph    
Max Gust Speed 23 mph    
Visibility 10 miles    
Events Thunderstorm    
Averages and records for this station are not official NWS values.
T = Trace of Precipitation, MM = Missing Value Source: NWS Daily Summary

Daily Weather History Graph

Daily Weather History Graph

Search for Another Location

Airport or City:

Trip Planner

Search our weather history database for the weather conditions in past years. The results will help you decide how hot, cold, wet, or windy it might be!

Date:

Astronomy

Aug. 13, 2013 Rise Set
Actual Time 6:29 AM CDT 7:50 PM CDT
Civil Twilight 6:03 AM CDT 8:15 PM CDT
Nautical Twilight 5:32 AM CDT 8:46 PM CDT
Astronomical Twilight 5:00 AM CDT 9:18 PM CDT
Moon 12:55 PM CDT (8/13) 11:55 PM CDT (8/13)
Length of Visible Light 14h 12m
Length of Day
13h 21m
Waxing Crescent, 42% of the Moon is Illuminated
Aug 13
Waxing Crescent
Aug 14
First Quarter
Aug 20
Full
Aug 28
Last Quarter
Sep 5
New

Hourly Weather History & Observations

Time (CDT) Temp. Heat Index Dew Point Humidity Pressure Visibility Wind Dir Wind Speed Gust Speed Precip Events Conditions
12:15 AM 75.2 °F - 73.4 °F 94% 30.05 in 10.0 mi South 5.8 mph - N/A   Mostly Cloudy
12:35 AM 75.2 °F - 73.4 °F 94% 30.04 in 10.0 mi South 4.6 mph - N/A   Partly Cloudy
12:55 AM 75.2 °F - 73.4 °F 94% 30.03 in 10.0 mi South 4.6 mph - N/A   Scattered Clouds
1:15 AM 75.2 °F - 73.4 °F 94% 30.03 in 10.0 mi South 6.9 mph - N/A   Mostly Cloudy
1:35 AM 77.0 °F - 73.4 °F 89% 30.01 in 10.0 mi South 6.9 mph - N/A   Mostly Cloudy
1:55 AM 75.2 °F - 73.4 °F 94% 30.00 in 10.0 mi South 8.1 mph - N/A   Partly Cloudy
2:15 AM 75.2 °F - 73.4 °F 94% 30.00 in 10.0 mi South 6.9 mph - N/A   Clear
2:35 AM 75.2 °F - 73.4 °F 94% 29.99 in 10.0 mi South 6.9 mph - N/A   Clear
2:55 AM 75.2 °F - 73.4 °F 94% 29.99 in 10.0 mi Calm Calm - N/A   Clear
3:15 AM 75.2 °F - 73.4 °F 94% 30.00 in 10.0 mi Calm Calm - N/A   Clear
3:35 AM 75.2 °F - 73.4 °F 94% 30.00 in 10.0 mi Calm Calm - N/A   Clear
3:55 AM 75.2 °F - 73.4 °F 94% 30.00 in 10.0 mi SSW 3.5 mph - N/A   Clear
4:15 AM 75.2 °F - 73.4 °F 94% 30.00 in 10.0 mi South 4.6 mph - N/A   Clear
4:35 AM 75.2 °F - 73.4 °F 94% 30.00 in 10.0 mi South 4.6 mph - N/A   Clear
4:55 AM 75.2 °F - 73.4 °F 94% 30.00 in 10.0 mi SSW 3.5 mph - N/A   Clear
5:15 AM 75.2 °F - 73.4 °F 94% 30.01 in 10.0 mi Calm Calm - N/A   Partly Cloudy
5:35 AM 75.2 °F - 73.4 °F 94% 30.01 in 10.0 mi South 4.6 mph - N/A   Mostly Cloudy
5:55 AM 75.2 °F - 73.4 °F 94% 30.01 in 10.0 mi Calm Calm - N/A   Mostly Cloudy
6:15 AM 75.2 °F - 73.4 °F 94% 30.01 in 10.0 mi South 5.8 mph - N/A   Scattered Clouds
6:35 AM 75.2 °F - 73.4 °F 94% 30.02 in 7.0 mi South 3.5 mph - N/A   Clear
6:55 AM 75.2 °F - 73.4 °F 94% 30.02 in 7.0 mi South 4.6 mph - N/A   Scattered Clouds
7:15 AM 75.2 °F - 75.2 °F 100% 30.02 in 8.0 mi SSW 4.6 mph - N/A   Partly Cloudy
7:35 AM 77.0 °F - 75.2 °F 94% 30.03 in 10.0 mi SSW 4.6 mph - N/A   Partly Cloudy
7:55 AM 78.8 °F - 75.2 °F 89% 30.03 in 10.0 mi SW 4.6 mph - N/A   Partly Cloudy
8:15 AM 80.6 °F 86.2 °F 75.2 °F 84% 30.04 in 10.0 mi SW 5.8 mph - N/A   Scattered Clouds
8:35 AM 80.6 °F 87.1 °F 77.0 °F 89% 30.04 in 10.0 mi WSW 9.2 mph - N/A   Mostly Cloudy
8:55 AM 82.4 °F 90.9 °F 77.0 °F 84% 30.04 in 10.0 mi WSW 8.1 mph - N/A   Overcast
9:15 AM 82.4 °F 90.9 °F 77.0 °F 84% 30.05 in 10.0 mi West 9.2 mph - N/A   Mostly Cloudy
9:35 AM 84.2 °F 94.1 °F 77.0 °F 79% 30.05 in 10.0 mi WSW 11.5 mph - N/A   Mostly Cloudy
9:55 AM 84.2 °F 94.1 °F 77.0 °F 79% 30.05 in 10.0 mi WSW 9.2 mph - N/A   Mostly Cloudy
10:15 AM 84.2 °F 94.1 °F 77.0 °F 79% 30.05 in 10.0 mi WSW 9.2 mph - N/A   Mostly Cloudy
10:35 AM 86.0 °F 96.9 °F 77.0 °F 74% 30.05 in 10.0 mi WSW 9.2 mph 16.1 mph N/A   Mostly Cloudy
10:55 AM 86.0 °F 96.9 °F 77.0 °F 74% 30.04 in 10.0 mi SW 9.2 mph - N/A   Mostly Cloudy
11:15 AM 87.8 °F 99.7 °F 77.0 °F 70% 30.04 in 10.0 mi SW 9.2 mph - N/A   Mostly Cloudy
11:35 AM 87.8 °F 99.7 °F 77.0 °F 70% 30.04 in 10.0 mi West 9.2 mph - N/A   Overcast
11:55 AM 87.8 °F 99.7 °F 77.0 °F 70% 30.03 in 10.0 mi West 8.1 mph - N/A   Overcast
12:35 PM 89.6 °F 104.7 °F 78.8 °F 70% 30.01 in 10.0 mi West 6.9 mph - N/A   Mostly Cloudy
12:55 PM 89.6 °F 102.2 °F 77.0 °F 66% 29.99 in 10.0 mi WSW 9.2 mph - N/A   Scattered Clouds
1:15 PM 89.6 °F 102.2 °F 77.0 °F 66% 29.98 in 10.0 mi SW 10.4 mph - N/A   Mostly Cloudy
1:35 PM 91.4 °F 107.2 °F 78.8 °F 66% 29.97 in 10.0 mi West 8.1 mph - N/A Thunderstorm Mostly Cloudy
1:55 PM 89.6 °F 99.8 °F 75.2 °F 62% 29.96 in 10.0 mi WSW 9.2 mph - N/A Thunderstorm Mostly Cloudy
2:15 PM 89.6 °F 102.2 °F 77.0 °F 66% 29.97 in 10.0 mi West 5.8 mph - N/A Thunderstorm Thunderstorm
2:35 PM 87.8 °F 99.7 °F 77.0 °F 70% 29.96 in 10.0 mi Calm Calm - N/A Thunderstorm Partly Cloudy
2:55 PM 80.6 °F 85.4 °F 73.4 °F 79% 29.96 in 10.0 mi NNE 16.1 mph 23.0 mph N/A Thunderstorm Mostly Cloudy
3:16 PM 77.0 °F - 73.4 °F 89% 29.98 in 6.0 mi WNW 19.6 mph 23.0 mph 0.20 in Thunderstorm Thunderstorm
3:35 PM 75.2 °F - 71.6 °F 89% 29.99 in 7.0 mi NW 5.8 mph - 0.57 in Thunderstorm Thunderstorm
3:55 PM 75.2 °F - 73.4 °F 94% 29.96 in 10.0 mi North 5.8 mph - 0.66 in Thunderstorm Thunderstorm
4:15 PM 75.2 °F - 73.4 °F 94% 29.95 in 9.0 mi ENE 5.8 mph - 0.01 in Thunderstorm Thunderstorm
4:35 PM 73.4 °F - 73.4 °F 100% 29.95 in 10.0 mi NE 3.5 mph - 0.01 in Thunderstorm Thunderstorm
4:55 PM 75.2 °F - 73.4 °F 94% 29.96 in 10.0 mi East 5.8 mph - 0.01 in Thunderstorm Scattered Clouds
5:15 PM 75.2 °F - 73.4 °F 94% 29.98 in 10.0 mi ESE 8.1 mph - N/A Thunderstorm Mostly Cloudy
5:35 PM 75.2 °F - 73.4 °F 94% 30.00 in 3.0 mi SE 13.8 mph - 0.26 in Thunderstorm Thunderstorm
5:55 PM 73.4 °F - 73.4 °F 100% 30.00 in 8.0 mi SSE 11.5 mph - 0.41 in Thunderstorm Mostly Cloudy
6:15 PM 73.4 °F - 71.6 °F 94% 30.03 in 6.0 mi SW 6.9 mph - 0.22 in   Mostly Cloudy
6:35 PM 73.4 °F - 73.4 °F 100% 30.05 in 8.0 mi WSW 13.8 mph - 0.50 in Thunderstorm Mostly Cloudy
6:55 PM 73.4 °F - 71.6 °F 94% 30.05 in 8.0 mi WNW 8.1 mph - 0.66 in Thunderstorm Overcast
7:15 PM 71.6 °F - 69.8 °F 94% 30.01 in 7.0 mi ESE 5.8 mph - 0.05 in Thunderstorm Mostly Cloudy
7:35 PM 71.6 °F - 69.8 °F 94% 30.00 in 10.0 mi South 8.1 mph - 0.06 in   Overcast
7:55 PM 71.6 °F - 71.6 °F 100% 30.00 in 10.0 mi South 6.9 mph - 0.09 in   Overcast
8:15 PM 71.6 °F - 71.6 °F 100% 29.99 in 10.0 mi SSE 6.9 mph - 0.04 in   Overcast
8:35 PM 71.6 °F - 71.6 °F 100% 29.97 in 10.0 mi SSE 8.1 mph - 0.05 in   Overcast
8:55 PM 71.6 °F - 71.6 °F 100% 29.96 in 10.0 mi SSE 5.8 mph - 0.06 in   Overcast
9:15 PM 73.4 °F - 71.6 °F 94% 29.95 in 10.0 mi South 8.1 mph - 0.01 in   Overcast
9:35 PM 71.6 °F - 71.6 °F 100% 29.96 in 10.0 mi SW 3.5 mph - 0.01 in   Partly Cloudy
9:55 PM 71.6 °F - 71.6 °F 100% 29.96 in 10.0 mi South 5.8 mph - 0.01 in   Clear
10:15 PM 71.6 °F - 71.6 °F 100% 29.97 in 10.0 mi SSW 8.1 mph - N/A   Clear
10:55 PM 71.6 °F - 71.6 °F 100% 29.97 in 10.0 mi South 3.5 mph - N/A   Partly Cloudy
11:15 PM 71.6 °F - 71.6 °F 100% 29.96 in 10.0 mi SSE 4.6 mph - N/A   Clear
11:35 PM 71.6 °F - 69.8 °F 94% 29.95 in 10.0 mi South 4.6 mph - N/A   Clear
11:55 PM 71.6 °F - 69.8 °F 94% 29.95 in 10.0 mi SSW 3.5 mph - N/A   Clear